Location: Edinburgh
(55.9500°N, 3.1600°W)
Time: 23:52:24
(UTC+00:00)

Envisat - Pass Details

Date: 23 February 2019
Orbit: 764 x 766 km, 98.2° (Epoch: 24 March)

Event Time Altitude Azimuth Distance (km) Brightness Sun altitude
Rises 18:42:10 0° 168° (SSE) 3,225 6.1 -10.3°
Reaches altitude 10° 18:44:28 10° 170° (S) 2,303 5.4 -10.6°
Maximum altitude 18:49:33 74° 256° (WSW) 801 3.3 -11.3°
Drops below altitude 10° 18:54:40 10° 342° (NNW) 2,318 5.7 -12.1°
Sets 18:56:59 0° 344° (NNW) 3,249 6.5 -12.4°
